Total_Precipitation_Accumulation
0.08 0.09 0.10 0.11 0.07 0.04 0.02 0.01 0.00 0.00 0.00 0.00 0.01 0.01 0.00 0.01 0.04 0.10 0.08 0.06 0.06 0.10 0.18 0.33 0.47 0.59 0.65 0.64 0.60 0.56 0.56 0.60 0.64 0.70 0.63 0.62 0.64 0.64 0.69 0.68 0.70 0.77 0.82 0.88 0.86 0.84 0.83 0.84 0.85
0.09 0.13 0.15 0.15 0.07 0.03 0.02 0.01 0.00 0.00 0.01 0.00 0.01 0.01 0.01 0.02 0.02 0.04 0.06 0.05 0.06 0.09 0.14 0.24 0.42 0.57 0.64 0.64 0.62 0.58 0.56 0.56 0.60 0.69 0.66 0.68 0.72 0.74 0.71 0.72 0.75 0.78 0.84 0.86 0.90 0.89 0.87 0.85 0.80
0.15 0.19 0.20 0.16 0.06 0.02 0.01 0.01 0.00 0.01 0.01 0.01 0.01 0.01 0.02 0.02 0.03 0.03 0.04 0.04 0.06 0.09 0.14 0.24 0.44 0.58 0.67 0.70 0.68 0.63 0.60 0.61 0.63 0.71 0.71 0.75 0.81 0.82 0.76 0.76 0.76 0.77 0.80 0.78 0.80 0.84 0.80 0.77 0.71
0.22 0.29 0.25 0.14 0.04 0.01 0.01 0.01 0.00 0.01 0.01 0.01 0.01 0.02 0.02 0.02 0.03 0.04 0.04 0.05 0.08 0.13 0.18 0.26 0.44 0.59 0.67 0.74 0.79 0.74 0.69 0.68 0.71 0.79 0.83 0.85 0.83 0.83 0.81 0.76 0.69 0.69 0.72 0.72 0.72 0.74 0.73 0.75 0.73
0.31 0.31 0.23 0.11 0.03 0.02 0.01 0.01 0.01 0.02 0.03 0.02 0.02 0.03 0.05 0.04 0.04 0.05 0.06 0.07 0.11 0.16 0.21 0.29 0.47 0.61 0.69 0.77 0.83 0.81 0.80 0.79 0.79 0.85 0.90 0.92 0.91 0.86 0.82 0.76 0.68 0.63 0.59 0.64 0.68 0.70 0.71 0.77 0.74
0.41 0.32 0.16 0.06 0.02 0.01 0.01 0.02 0.02 0.03 0.03 0.04 0.06 0.06 0.07 0.07 0.08 0.09 0.10 0.13 0.15 0.19 0.24 0.34 0.54 0.66 0.73 0.80 0.88 0.89 0.90 0.91 0.91 0.93 1.01 1.03 0.99 0.92 0.82 0.74 0.70 0.66 0.57 0.58 0.62 0.66 0.74 0.79 0.73
0.42 0.29 0.12 0.03 0.02 0.01 0.01 0.02 0.03 0.04 0.05 0.06 0.08 0.09 0.08 0.11 0.13 0.14 0.15 0.17 0.21 0.26 0.31 0.40 0.53 0.67 0.79 0.90 0.96 0.97 1.02 1.05 1.03 1.04 1.10 1.05 0.99 0.98 0.92 0.87 0.76 0.67 0.61 0.61 0.58 0.60 0.69 0.75 0.72
0.44 0.37 0.16 0.05 0.03 0.03 0.01 0.02 0.04 0.05 0.06 0.06 0.08 0.11 0.11 0.12 0.14 0.19 0.23 0.27 0.30 0.34 0.40 0.49 0.57 0.68 0.80 0.92 0.94 0.97 1.05 1.14 1.14 1.16 1.03 0.89 0.89 0.96 0.90 0.81 0.77 0.67 0.63 0.62 0.59 0.56 0.59 0.62 0.63
0.57 0.53 0.23 0.07 0.04 0.03 0.02 0.02 0.03 0.05 0.07 0.08 0.07 0.10 0.12 0.14 0.19 0.26 0.38 0.45 0.48 0.49 0.49 0.56 0.67 0.78 0.90 0.98 0.91 0.98 1.10 1.15 1.13 1.11 0.93 0.84 0.86 0.84 0.81 0.66 0.63 0.68 0.66 0.65 0.65 0.65 0.60 0.54 0.47
0.72 0.55 0.21 0.08 0.06 0.06 0.05 0.05 0.05 0.07 0.08 0.09 0.08 0.10 0.14 0.20 0.29 0.35 0.42 0.49 0.54 0.58 0.59 0.65 0.74 0.91 1.04 1.03 1.03 1.12 1.17 1.14 1.05 0.98 0.93 0.90 0.91 0.84 0.76 0.65 0.59 0.65 0.67 0.69 0.72 0.72 0.66 0.58 0.48
0.67 0.49 0.22 0.10 0.08 0.10 0.09 0.08 0.07 0.08 0.09 0.12 0.13 0.12 0.16 0.27 0.37 0.41 0.46 0.53 0.57 0.65 0.68 0.72 0.86 0.98 1.13 1.19 1.13 1.16 1.24 1.28 1.22 1.11 1.04 1.01 1.06 1.00 0.87 0.75 0.64 0.67 0.65 0.69 0.70 0.71 0.66 0.65 0.63
0.61 0.41 0.27 0.16 0.12 0.14 0.16 0.12 0.10 0.10 0.10 0.11 0.18 0.18 0.20 0.27 0.35 0.42 0.49 0.58 0.68 0.75 0.77 0.79 0.89 1.10 1.24 1.29 1.23 1.21 1.21 1.22 1.23 1.22 1.18 1.17 1.12 1.00 0.85 0.75 0.64 0.61 0.60 0.63 0.67 0.68 0.63 0.65 0.67
0.57 0.37 0.27 0.22 0.18 0.17 0.19 0.19 0.15 0.13 0.10 0.12 0.21 0.27 0.30 0.32 0.39 0.45 0.54 0.64 0.69 0.75 0.80 0.85 0.91 1.05 1.27 1.39 1.34 1.29 1.23 1.15 1.20 1.30 1.30 1.20 1.14 1.02 0.92 0.83 0.76 0.67 0.60 0.60 0.64 0.68 0.68 0.66 0.70
0.53 0.42 0.33 0.28 0.26 0.24 0.25 0.23 0.19 0.17 0.14 0.16 0.26 0.31 0.37 0.40 0.47 0.51 0.57 0.60 0.66 0.74 0.84 0.93 1.00 1.07 1.25 1.36 1.36 1.30 1.29 1.28 1.27 1.25 1.28 1.26 1.20 1.12 1.04 0.96 0.92 0.84 0.75 0.69 0.71 0.77 0.78 0.73 0.69
0.52 0.57 0.49 0.37 0.33 0.33 0.34 0.36 0.24 0.17 0.17 0.24 0.28 0.32 0.38 0.44 0.50 0.55 0.59 0.62 0.64 0.77 0.91 1.03 1.14 1.18 1.25 1.36 1.43 1.42 1.36 1.32 1.24 1.16 1.17 1.20 1.21 1.17 1.04 0.98 0.95 0.92 0.91 0.89 0.83 0.80 0.87 0.84 0.77
0.78 0.88 0.75 0.43 0.34 0.38 0.50 0.48 0.23 0.20 0.22 0.29 0.31 0.36 0.39 0.41 0.48 0.57 0.65 0.75 0.81 0.91 1.00 1.10 1.25 1.30 1.32 1.35 1.46 1.54 1.52 1.44 1.30 1.20 1.18 1.14 1.19 1.24 1.20 1.08 1.00 0.98 1.00 1.02 1.00 0.89 0.86 0.86 0.85
1.13 1.02 0.66 0.39 0.32 0.42 0.52 0.46 0.27 0.24 0.27 0.31 0.34 0.40 0.43 0.46 0.51 0.56 0.65 0.75 0.86 0.96 1.06 1.18 1.27 1.33 1.34 1.37 1.53 1.61 1.62 1.55 1.46 1.37 1.22 1.18 1.21 1.21 1.22 1.16 1.13 1.16 1.15 1.09 1.07 1.00 0.97 0.93 0.90
0.90 0.68 0.52 0.40 0.35 0.40 0.44 0.35 0.28 0.28 0.30 0.31 0.33 0.37 0.42 0.45 0.48 0.57 0.69 0.81 0.94 1.04 1.10 1.22 1.32 1.42 1.49 1.59 1.67 1.80 1.76 1.65 1.60 1.51 1.39 1.25 1.22 1.24 1.29 1.22 1.19 1.22 1.23 1.21 1.24 1.20 1.10 1.05 1.05
0.62 0.59 0.50 0.38 0.33 0.41 0.43 0.33 0.30 0.31 0.32 0.32 0.35 0.35 0.40 0.43 0.45 0.52 0.66 0.81 0.98 1.08 1.17 1.25 1.33 1.45 1.55 1.58 1.53 1.61 1.65 1.63 1.63 1.57 1.50 1.45 1.38 1.35 1.39 1.32 1.25 1.25 1.19 1.10 1.07 1.18 1.22 1.16 1.13
0.78 0.77 0.55 0.41 0.35 0.43 0.44 0.36 0.33 0.37 0.36 0.34 0.35 0.37 0.41 0.41 0.44 0.52 0.61 0.77 0.99 1.09 1.18 1.28 1.31 1.43 1.49 1.44 1.46 1.50 1.59 1.67 1.72 1.72 1.67 1.54 1.43 1.42 1.50 1.53 1.41 1.26 1.19 1.12 1.01 1.00 1.09 1.11 1.11
0.85 0.69 0.52 0.51 0.52 0.54 0.55 0.48 0.33 0.37 0.38 0.34 0.31 0.34 0.39 0.40 0.42 0.49 0.59 0.71 0.85 0.97 1.11 1.26 1.25 1.29 1.46 1.53 1.69 1.80 1.88 1.93 1.93 1.83 1.76 1.63 1.46 1.36 1.37 1.48 1.56 1.49 1.33 1.19 1.08 1.02 0.98 1.03 1.02
0.84 0.49 0.51 0.62 0.87 0.99 0.77 0.81 0.38 0.38 0.43 0.38 0.35 0.35 0.36 0.38 0.42 0.49 0.53 0.65 0.78 0.84 1.02 1.17 1.23 1.22 1.39 1.57 1.64 1.65 1.63 1.66 1.60 1.59 1.59 1.59 1.53 1.44 1.39 1.44 1.49 1.52 1.42 1.27 1.19 1.12 1.04 1.02 1.04
0.66 0.52 0.66 0.82 1.04 1.20 0.85 0.90 0.50 0.39 0.46 0.43 0.37 0.37 0.34 0.31 0.35 0.46 0.53 0.60 0.72 0.84 1.02 1.14 1.17 1.25 1.37 1.51 1.61 1.63 1.60 1.55 1.61 1.66 1.65 1.68 1.58 1.50 1.44 1.46 1.48 1.46 1.37 1.28 1.22 1.15 1.10 1.05 1.01
0.68 0.82 0.99 1.18 1.67 1.84 0.77 0.68 0.56 0.42 0.43 0.41 0.37 0.39 0.34 0.30 0.32 0.42 0.55 0.61 0.72 0.86 1.00 1.17 1.25 1.28 1.38 1.52 1.65 1.65 1.61 1.65 1.72 1.69 1.74 1.79 1.74 1.62 1.52 1.49 1.48 1.43 1.34 1.26 1.21 1.18 1.14 1.08 1.02
1.12 1.62 2.36 2.47 2.47 1.45 0.42 0.44 0.48 0.33 0.29 0.31 0.33 0.37 0.33 0.30 0.33 0.42 0.53 0.65 0.75 0.83 0.93 1.13 1.30 1.28 1.27 1.41 1.57 1.59 1.61 1.71 1.71 1.72 1.72 1.78 1.77 1.64 1.52 1.44 1.43 1.43 1.38 1.29 1.23 1.22 1.19 1.17 1.16
1.11 1.41 1.89 1.76 1.15 0.57 0.36 0.44 0.39 0.24 0.20 0.21 0.24 0.30 0.29 0.31 0.36 0.43 0.49 0.60 0.73 0.81 0.90 1.05 1.24 1.26 1.22 1.26 1.37 1.49 1.57 1.73 1.80 1.87 1.84 1.79 1.75 1.66 1.58 1.56 1.53 1.47 1.44 1.44 1.37 1.28 1.22 1.22 1.19
0.98 1.07 0.99 1.34 0.95 0.58 0.45 0.36 0.28 0.17 0.17 0.18 0.21 0.26 0.26 0.27 0.33 0.42 0.46 0.54 0.70 0.82 0.86 0.89 1.12 1.21 1.20 1.24 1.30 1.41 1.49 1.55 1.58 1.71 1.82 1.81 1.73 1.66 1.63 1.59 1.59 1.57 1.57 1.61 1.61 1.48 1.32 1.28 1.21
0.80 0.97 1.26 1.85 1.57 0.82 0.43 0.30 0.30 0.25 0.23 0.20 0.20 0.25 0.27 0.31 0.35 0.43 0.46 0.52 0.63 0.79 0.84 0.80 0.98 1.11 1.11 1.17 1.26 1.33 1.41 1.48 1.47 1.53 1.58 1.64 1.70 1.68 1.65 1.62 1.55 1.51 1.53 1.62 1.71 1.64 1.46 1.38 1.29
0.88 1.18 1.54 1.67 1.30 0.95 0.60 0.42 0.35 0.32 0.28 0.25 0.24 0.27 0.30 0.36 0.41 0.49 0.52 0.57 0.63 0.75 0.80 0.81 0.87 1.07 1.15 1.14 1.18 1.24 1.32 1.42 1.50 1.53 1.48 1.44 1.54 1.67 1.66 1.60 1.55 1.50 1.49 1.54 1.62 1.64 1.61 1.53 1.42
0.81 0.97 1.21 1.65 1.28 0.79 0.67 0.46 0.28 0.29 0.28 0.27 0.29 0.29 0.31 0.33 0.38 0.45 0.51 0.58 0.69 0.82 0.85 0.83 0.86 1.00 1.18 1.23 1.15 1.18 1.26 1.36 1.45 1.47 1.44 1.42 1.36 1.41 1.54 1.63 1.64 1.58 1.49 1.51 1.61 1.61 1.62 1.63 1.55